Location: Asheville, NC
(35.6000°N, 82.5500°W)
Time: 02:23:20

ZACube-1 - Pass Details

Date: 10 March 2018
Orbit: 584 x 669 km, 97.6° (Epoch: 16 March)

Event Time Altitude Azimuth Distance (km) Brightness Sun altitude
Rises 20:47:04 0° 206° (SSW) 2,916 ? -27.7°
Reaches altitude 10° 20:50:03 10° 228° (SW) 1,995 ? -28.3°
Maximum altitude 20:52:43 16° 266° (W) 1,624 ? -28.8°
Drops below altitude 10° 20:55:22 10° 305° (NW) 1,972 ? -29.3°
Sets 20:58:18 0° 327° (NNW) 2,864 ? -29.9°
